カタログに戻る

COSMOS 1998

運用中軍事PO
NORAD 19789·PAYLOAD·🇷🇺 Russia

打ち上げ Feb 10, 1989 から Plesetsk Cosmodrome

Loading…

次のパス (今後24時間)

TLE

最新Source: Space-Track

元期: Sep 14, 2026, 07:01 UTC

1 19789U 89009E   26257.29304241  .00000000  00000-0 -57276-4 0  9999
2 19789  82.6063 274.6101 0017237  79.1411 281.1621 12.64935565735287

AllMySatでCOSMOS 1998をリアルタイム追跡

Download on the App Store